Location: Montclair
(37.8322°N, 122.2092°W)
Time: 13:50:22
(UTC+00:00)

Cosmos 1605 Rocket - Pass Details

Date: 08 September 2024
Orbit: 943 x 1006 km, 82.9° (Epoch: 11 October)

Event Time Altitude Azimuth Distance (km) Brightness Sun altitude
Rises 12:37:23 0° 355° (N) 3,705 7.2 -13.9°
Reaches altitude 10° 12:39:57 10° 358° (N) 2,744 6.6 -13.4°
Maximum altitude 12:46:13 71° 82° (E) 1,027 4.3 -12.2°
Drops below altitude 10° 12:52:21 10° 166° (SSE) 2,684 6.3 -11.1°
Sets 12:54:50 0° 169° (SSE) 3,619 6.9 -10.6°
